Location: Newark
(47.0000°N, 7.6833°E)
Time: 00:58:20
(UTC+00:00)

ISS - Pass Details

Date: 31 August 2019
Orbit: 411 x 421 km, 51.6° (Epoch: 17 October)

Event Time Altitude Azimuth Distance (km) Brightness Sun altitude
Exits shadow 02:45:38 24° 148° (SSE) 894 -2.2 -19.3°
Maximum altitude 02:45:54 25° 140° (SE) 887 -2.1 -19.3°
Drops below altitude 10° 02:48:41 10° 83° (E) 1,493 -0.1 -18.9°
Sets 02:51:01 0° 70° (ENE) 2,362 1.5 -18.6°
